Location: *
(37.4917°N, 71.5558°E)
Time: 02:10:11
(UTC+00:00)

Cosmos 1959 Rocket - Pass Details

Date: 09 April 2020
Orbit: 946 x 998 km, 82.9° (Epoch: 05 June)

Event Time Altitude Azimuth Distance (km) Brightness Sun altitude
Rises 16:13:55 0° 351° (N) 3,704 8.2 -27.9°
Reaches altitude 10° 16:16:27 10° 351° (N) 2,746 7.4 -28.3°
Maximum altitude 16:22:45 79° 266° (W) 995 4.5 -29.3°
Enters shadow 16:23:20 72° 212° (SSW) 1,022 4.4 -29.4°
